GFSNGP_500_temp_135.txt.gz
Temp
-23 -22 -23 -24 -24 -22 -24 -22 -22 -22 -22 -21 -22 -22 -22 -21 -22 -22 -22 -22 -22 -22 -21 -21 -21 -21 -22 -22 -22 -22 -22 -21 -21 -21 -20 -21 -21 -21 -21 -21 -20 -20 -20 -19
-23 -23 -24 -24 -22 -22 -23 -23 -23 -24 -23 -22 -23 -23 -22 -23 -22 -22 -22 -22 -22 -22 -21 -22 -22 -22 -22 -23 -23 -23 -23 -23 -22 -22 -21 -21 -21 -21 -21 -22 -22 -22 -21 -21
-23 -24 -24 -24 -22 -23 -23 -23 -23 -24 -23 -23 -24 -23 -22 -23 -23 -23 -23 -22 -22 -22 -22 -22 -22 -22 -23 -23 -24 -24 -24 -24 -24 -24 -23 -22 -22 -22 -22 -23 -22 -22 -22 -22
-24 -24 -25 -22 -23 -24 -23 -23 -23 -24 -24 -25 -24 -23 -23 -23 -23 -23 -23 -22 -22 -22 -22 -23 -23 -24 -24 -24 -24 -25 -25 -25 -25 -25 -24 -24 -24 -24 -24 -23 -23 -22 -22 -22
-25 -24 -24 -23 -22 -25 -24 -23 -24 -24 -24 -24 -23 -24 -23 -23 -23 -23 -22 -23 -22 -23 -23 -24 -24 -24 -24 -25 -25 -25 -26 -26 -26 -26 -26 -26 -25 -24 -23 -23 -23 -23 -23 -22
-25 -25 -25 -23 -24 -24 -24 -23 -24 -24 -24 -24 -24 -24 -23 -23 -23 -23 -23 -23 -23 -24 -24 -24 -24 -24 -25 -25 -25 -26 -26 -27 -27 -27 -27 -26 -26 -24 -24 -25 -25 -24 -23 -23
-25 -25 -25 -24 -24 -25 -24 -24 -24 -24 -24 -24 -24 -24 -23 -23 -23 -23 -24 -24 -24 -24 -24 -24 -24 -25 -25 -25 -25 -26 -26 -26 -27 -27 -26 -26 -26 -26 -26 -26 -25 -24 -24 -24
-25 -25 -24 -25 -25 -25 -24 -24 -24 -24 -24 -23 -24 -24 -24 -23 -23 -24 -24 -24 -24 -24 -24 -24 -25 -25 -25 -25 -25 -26 -26 -26 -26 -27 -26 -26 -26 -27 -26 -25 -25 -24 -24 -23
-26 -25 -26 -25 -25 -25 -25 -24 -24 -24 -24 -24 -24 -24 -24 -24 -24 -24 -24 -24 -24 -24 -24 -24 -24 -25 -25 -25 -26 -26 -26 -26 -27 -27 -27 -27 -26 -27 -26 -25 -24 -24 -23 -23
-26 -26 -26 -25 -25 -25 -25 -24 -24 -24 -24 -24 -24 -24 -24 -25 -24 -24 -24 -24 -24 -24 -24 -24 -24 -25 -25 -26 -26 -26 -26 -27 -27 -27 -26 -26 -26 -26 -25 -24 -24 -24 -23 -23
-26 -26 -25 -25 -25 -25 -25 -24 -24 -24 -24 -24 -24 -24 -25 -24 -24 -24 -24 -24 -24 -24 -24 -24 -25 -25 -26 -26 -26 -25 -26 -27 -26 -26 -26 -26 -26 -26 -25 -24 -24 -23 -23 -23
-25 -26 -25 -25 -25 -24 -24 -24 -24 -24 -24 -24 -25 -25 -25 -25 -24 -24 -24 -24 -24 -24 -24 -25 -25 -25 -26 -26 -25 -27 -26 -26 -26 -26 -26 -26 -26 -25 -25 -24 -24 -24 -23 -23
-25 -25 -25 -25 -25 -24 -24 -24 -25 -24 -25 -25 -25 -25 -25 -25 -24 -24 -24 -24 -24 -24 -25 -25 -25 -25 -26 -25 -25 -26 -26 -26 -26 -26 -26 -26 -26 -25 -25 -24 -24 -24 -24 -23
-26 -26 -25 -25 -25 -25 -25 -25 -25 -25 -26 -25 -25 -25 -25 -25 -24 -24 -25 -25 -24 -25 -25 -25 -25 -25 -25 -25 -26 -26 -25 -26 -26 -26 -26 -26 -25 -25 -25 -24 -24 -24 -24 -24
-26 -25 -25 -25 -25 -25 -25 -25 -26 -26 -26 -25 -25 -25 -25 -25 -25 -25 -25 -25 -25 -25 -25 -25 -26 -26 -25 -26 -26 -25 -25 -26 -26 -26 -26 -25 -25 -25 -25 -25 -24 -24 -24 -24
-26 -25 -25 -26 -26 -26 -26 -26 -26 -26 -26 -26 -25 -25 -25 -25 -25 -25 -25 -25 -25 -25 -26 -26 -25 -26 -26 -26 -26 -26 -26 -26 -26 -25 -25 -25 -25 -25 -25 -25 -25 -25 -24 -24
-26 -26 -26 -26 -26 -26 -26 -26 -26 -26 -26 -26 -26 -26 -26 -25 -25 -25 -26 -26 -26 -26 -26 -26 -26 -26 -26 -26 -26 -26 -26 -26 -26 -26 -26 -25 -25 -25 -25 -25 -25 -25 -25 -25
-26 -26 -26 -26 -26 -26 -26 -26 -26 -26 -26 -26 -26 -26 -26 -26 -26 -26 -26 -26 -26 -26 -26 -26 -26 -26 -26 -26 -26 -26 -26 -26 -26 -26 -26 -26 -26 -26 -26 -26 -26 -26 -25 -25
-26 -27 -27 -27 -27 -27 -27 -27 -27 -27 -27 -27 -27 -27 -27 -26 -27 -27 -27 -26 -26 -26 -26 -26 -26 -26 -27 -27 -27 -27 -27 -27 -27 -27 -27 -27 -27 -26 -26 -26 -26 -26 -26 -26
-26 -27 -27 -27 -27 -27 -27 -27 -27 -27 -27 -27 -27 -27 -27 -27 -27 -27 -27 -27 -27 -27 -27 -27 -27 -27 -27 -27 -27 -27 -27 -27 -27 -27 -27 -27 -27 -27 -27 -27 -27 -27 -27 -27
-26 -27 -27 -27 -27 -28 -28 -28 -28 -28 -27 -28 -28 -28 -27 -27 -27 -28 -28 -27 -27 -27 -27 -27 -27 -27 -28 -28 -28 -28 -28 -28 -28 -28 -28 -28 -28 -27 -27 -27 -27 -27 -27 -27
-26 -27 -28 -28 -28 -28 -28 -28 -28 -28 -28 -28 -28 -28 -28 -28 -28 -28 -28 -28 -28 -28 -28 -28 -28 -28 -28 -28 -28 -28 -28 -28 -28 -28 -28 -28 -28 -28 -28 -28 -28 -28 -28 -29
-27 -28 -28 -29 -29 -29 -29 -29 -29 -29 -29 -29 -28 -28 -28 -28 -28 -28 -28 -28 -28 -28 -28 -28 -28 -29 -29 -29 -29 -29 -29 -29 -29 -28 -28 -28 -28 -28 -29 -29 -29 -29 -29 -30
-28 -29 -29 -29 -29 -29 -29 -29 -29 -29 -29 -29 -28 -28 -29 -29 -29 -29 -29 -29 -29 -29 -29 -29 -29 -29 -29 -29 -29 -29 -29 -29 -29 -29 -29 -29 -29 -29 -29 -30 -30 -30 -30 -30
-28 -29 -29 -28 -29 -29 -29 -29 -29 -29 -29 -29 -29 -29 -29 -29 -29 -29 -29 -29 -29 -29 -29 -29 -29 -29 -29 -29 -29 -29 -29 -29 -29 -29 -29 -30 -30 -30 -30 -30 -30 -30 -30 -30
-28 -28 -29 -29 -29 -29 -29 -29 -29 -29 -29 -29 -29 -29 -29 -29 -29 -29 -29 -29 -29 -29 -29 -29 -30 -30 -30 -30 -30 -30 -30 -30 -30 -30 -30 -30 -30 -30 -30 -30 -30 -30 -31 -31
-28 -28 -28 -29 -29 -29 -29 -29 -29 -29 -29 -29 -29 -29 -29 -29 -29 -29 -29 -29 -29 -30 -30 -30 -30 -30 -30 -30 -30 -30 -30 -30 -30 -30 -30 -30 -30 -30 -31 -31 -31 -31 -31 -32

GFSNGP_500_temp_138.txt.gz
Temp
-22 -21 -22 -23 -23 -22 -22 -23 -23 -22 -22 -21 -21 -23 -23 -22 -22 -21 -21 -21 -21 -22 -22 -22 -22 -22 -22 -22 -22 -22 -22 -22 -22 -22 -22 -22 -22 -21 -21 -21 -21 -21 -22 -22
-22 -22 -23 -23 -22 -22 -22 -23 -23 -24 -23 -21 -23 -22 -24 -23 -21 -21 -22 -22 -22 -22 -22 -22 -22 -22 -22 -22 -22 -22 -23 -23 -23 -23 -24 -23 -23 -23 -22 -22 -22 -22 -23 -23
-23 -23 -24 -24 -21 -22 -23 -24 -24 -24 -24 -23 -22 -23 -22 -22 -23 -22 -22 -23 -23 -23 -22 -22 -22 -22 -22 -22 -23 -23 -24 -24 -24 -24 -24 -24 -24 -24 -24 -24 -24 -24 -23 -23
-24 -24 -24 -23 -22 -23 -24 -24 -23 -23 -24 -23 -24 -24 -22 -22 -24 -23 -23 -23 -23 -23 -22 -22 -22 -23 -23 -23 -24 -24 -24 -24 -25 -25 -25 -25 -26 -26 -25 -25 -25 -24 -24 -23
-25 -24 -24 -23 -22 -24 -25 -24 -23 -24 -23 -23 -24 -23 -24 -24 -23 -24 -24 -23 -23 -23 -23 -22 -23 -24 -24 -24 -24 -25 -25 -25 -25 -26 -26 -26 -27 -27 -27 -26 -25 -25 -24 -24
-24 -25 -24 -22 -24 -24 -25 -23 -24 -24 -24 -24 -24 -24 -24 -24 -24 -24 -24 -23 -23 -23 -23 -24 -24 -24 -24 -24 -24 -25 -25 -25 -25 -26 -26 -26 -27 -28 -27 -26 -26 -26 -26 -25
-25 -25 -24 -23 -24 -25 -25 -23 -24 -24 -24 -25 -24 -24 -24 -24 -24 -24 -24 -24 -24 -24 -24 -24 -24 -24 -24 -24 -25 -25 -25 -25 -26 -26 -26 -27 -27 -27 -27 -27 -27 -27 -26 -25
-25 -25 -24 -24 -24 -24 -24 -24 -25 -24 -24 -24 -24 -24 -24 -24 -24 -24 -24 -24 -24 -25 -24 -24 -24 -24 -24 -24 -25 -25 -25 -26 -26 -26 -27 -26 -27 -27 -27 -27 -27 -27 -26 -25
-26 -25 -25 -25 -25 -25 -25 -25 -25 -25 -24 -24 -24 -24 -24 -24 -24 -24 -24 -24 -25 -25 -24 -24 -24 -24 -24 -24 -25 -25 -26 -26 -26 -27 -27 -27 -27 -27 -27 -27 -27 -26 -25 -24
-26 -25 -25 -26 -25 -25 -25 -25 -25 -25 -24 -24 -24 -24 -24 -24 -24 -24 -24 -25 -25 -24 -24 -24 -24 -24 -24 -25 -25 -26 -26 -26 -26 -27 -27 -27 -27 -27 -27 -27 -26 -25 -25 -24
-25 -25 -25 -25 -25 -25 -25 -25 -25 -25 -24 -24 -24 -24 -24 -24 -24 -25 -25 -24 -24 -24 -24 -24 -24 -24 -25 -25 -25 -26 -26 -26 -26 -27 -27 -26 -27 -27 -27 -26 -26 -25 -25 -24
-26 -26 -26 -26 -26 -26 -25 -25 -25 -24 -24 -24 -24 -24 -24 -25 -25 -25 -25 -24 -24 -24 -24 -24 -24 -25 -25 -25 -25 -26 -26 -26 -27 -27 -26 -26 -26 -26 -26 -26 -25 -25 -25 -24
-26 -26 -26 -26 -26 -26 -25 -25 -25 -24 -24 -24 -25 -24 -25 -25 -25 -25 -25 -24 -24 -24 -25 -24 -25 -25 -25 -25 -26 -26 -25 -26 -26 -26 -26 -26 -26 -26 -26 -26 -25 -25 -25 -24
-26 -26 -26 -26 -26 -26 -25 -25 -25 -25 -25 -25 -25 -26 -25 -25 -25 -25 -25 -24 -24 -25 -25 -25 -25 -25 -25 -25 -26 -26 -26 -26 -26 -26 -26 -26 -26 -26 -26 -26 -26 -25 -25 -25
-26 -26 -26 -26 -26 -25 -25 -25 -25 -25 -25 -25 -26 -26 -25 -25 -25 -25 -25 -25 -25 -25 -25 -25 -25 -25 -25 -25 -26 -26 -25 -26 -26 -26 -26 -26 -26 -26 -26 -25 -25 -25 -25 -25
-26 -26 -26 -26 -26 -25 -25 -25 -26 -26 -26 -26 -26 -26 -26 -26 -26 -25 -25 -25 -25 -25 -26 -26 -26 -26 -26 -26 -26 -26 -26 -26 -26 -26 -26 -26 -26 -26 -26 -26 -25 -25 -25 -25
-26 -26 -26 -26 -26 -26 -26 -26 -26 -26 -26 -26 -26 -26 -26 -26 -26 -26 -26 -26 -26 -26 -26 -26 -26 -26 -26 -26 -26 -26 -26 -26 -26 -26 -26 -26 -26 -26 -26 -26 -26 -26 -26 -26
-26 -26 -26 -26 -26 -27 -26 -26 -26 -26 -26 -26 -26 -26 -26 -26 -26 -26 -26 -26 -26 -26 -26 -26 -26 -26 -26 -26 -26 -27 -27 -27 -27 -27 -27 -27 -27 -27 -27 -27 -27 -27 -27 -26
-26 -26 -26 -27 -27 -27 -27 -27 -27 -27 -27 -27 -27 -27 -27 -27 -27 -27 -27 -27 -27 -27 -27 -27 -27 -27 -27 -27 -27 -27 -27 -27 -27 -27 -27 -27 -27 -27 -27 -27 -27 -27 -27 -27
-26 -26 -27 -27 -27 -27 -27 -27 -27 -27 -27 -27 -27 -27 -27 -27 -27 -27 -27 -27 -27 -27 -27 -27 -27 -27 -27 -27 -27 -27 -27 -28 -28 -28 -28 -28 -28 -28 -28 -28 -28 -27 -27 -27
-26 -26 -27 -27 -27 -27 -28 -28 -28 -28 -28 -28 -28 -28 -28 -28 -28 -27 -27 -27 -28 -28 -28 -28 -28 -28 -28 -28 -28 -28 -28 -28 -28 -28 -28 -28 -28 -28 -28 -28 -28 -28 -28 -28
-26 -26 -26 -27 -27 -28 -28 -29 -29 -29 -29 -29 -28 -28 -28 -28 -28 -28 -28 -28 -28 -28 -28 -28 -28 -28 -28 -28 -28 -28 -29 -29 -29 -29 -29 -29 -29 -29 -29 -29 -29 -29 -29 -29
-25 -26 -27 -27 -28 -29 -29 -29 -29 -29 -29 -29 -29 -29 -29 -29 -29 -29 -29 -28 -28 -28 -28 -29 -29 -29 -29 -29 -29 -29 -29 -29 -29 -29 -29 -29 -29 -29 -29 -29 -29 -29 -29 -29
-26 -26 -27 -28 -28 -28 -29 -29 -29 -29 -29 -29 -29 -29 -29 -29 -29 -29 -28 -28 -29 -29 -29 -29 -29 -29 -29 -29 -29 -29 -29 -30 -30 -30 -29 -30 -30 -29 -29 -29 -30 -30 -30 -30
-26 -27 -28 -28 -28 -28 -28 -29 -29 -29 -29 -29 -29 -29 -29 -29 -29 -29 -29 -29 -29 -29 -29 -29 -29 -29 -29 -29 -30 -30 -30 -30 -30 -30 -30 -30 -30 -30 -30 -30 -30 -30 -31 -31
-27 -27 -28 -28 -28 -28 -28 -28 -29 -29 -29 -29 -29 -29 -29 -29 -29 -29 -29 -29 -29 -29 -29 -29 -29 -30 -30 -30 -30 -30 -30 -30 -30 -30 -30 -30 -31 -31 -31 -31 -31 -31 -32 -32
-27 -28 -28 -28 -28 -28 -28 -29 -29 -29 -29 -29 -29 -29 -29 -29 -29 -29 -29 -29 -30 -30 -30 -30 -30 -30 -30 -30 -30 -30 -31 -31 -31 -31 -31 -31 -32 -32 -32 -32 -32 -32 -32 -32

GFSNGP_500_temp_141.txt.gz
Temp
-21 -20 -21 -21 -22 -21 -21 -22 -23 -22 -22 -21 -21 -22 -22 -22 -22 -21 -21 -21 -21 -21 -22 -22 -22 -23 -23 -22 -22 -22 -22 -22 -22 -22 -22 -22 -22 -23 -23 -23 -23 -23 -22 -22
-22 -22 -22 -23 -21 -22 -22 -23 -23 -23 -23 -23 -23 -23 -22 -22 -22 -22 -22 -21 -22 -22 -23 -23 -23 -23 -23 -23 -22 -22 -22 -22 -23 -23 -23 -24 -24 -24 -24 -24 -24 -24 -23 -24
-22 -23 -23 -23 -21 -23 -22 -23 -23 -24 -23 -23 -23 -23 -22 -22 -23 -22 -23 -23 -23 -23 -23 -23 -24 -23 -23 -23 -23 -23 -22 -23 -23 -24 -24 -24 -24 -24 -25 -25 -25 -25 -25 -25
-24 -24 -25 -23 -23 -23 -24 -23 -24 -24 -24 -24 -24 -23 -23 -23 -23 -23 -23 -24 -24 -23 -24 -24 -23 -23 -23 -23 -23 -23 -23 -24 -24 -24 -25 -25 -25 -25 -26 -26 -26 -26 -26 -26
-26 -25 -25 -22 -22 -24 -24 -24 -24 -24 -24 -24 -24 -24 -23 -24 -24 -24 -24 -24 -24 -24 -24 -24 -24 -24 -24 -24 -24 -24 -24 -24 -24 -25 -25 -25 -26 -26 -26 -27 -28 -27 -27 -27
-25 -25 -24 -22 -24 -24 -25 -24 -24 -24 -24 -24 -24 -24 -24 -24 -24 -24 -24 -24 -24 -24 -24 -24 -24 -24 -24 -24 -24 -24 -24 -25 -25 -25 -25 -26 -26 -26 -27 -27 -28 -28 -27 -27
-25 -25 -24 -23 -24 -25 -25 -24 -24 -24 -24 -24 -24 -25 -24 -25 -25 -25 -24 -24 -24 -24 -24 -24 -24 -24 -25 -25 -24 -24 -24 -24 -25 -25 -26 -26 -26 -27 -27 -27 -27 -28 -27 -27
-26 -26 -25 -24 -24 -25 -25 -24 -24 -24 -25 -25 -25 -25 -25 -25 -24 -24 -24 -24 -24 -24 -24 -24 -25 -25 -25 -24 -24 -24 -24 -25 -25 -26 -26 -26 -27 -27 -27 -28 -28 -28 -28 -28
-26 -25 -25 -25 -25 -25 -25 -25 -25 -25 -25 -25 -25 -25 -24 -25 -25 -25 -24 -25 -25 -24 -24 -25 -25 -25 -24 -24 -24 -24 -25 -25 -26 -26 -26 -26 -27 -27 -28 -27 -27 -27 -27 -27
-26 -26 -26 -25 -25 -25 -25 -25 -25 -25 -25 -25 -25 -25 -25 -25 -25 -24 -24 -24 -24 -24 -25 -25 -25 -25 -24 -24 -24 -25 -25 -26 -26 -26 -26 -26 -27 -27 -27 -27 -27 -27 -27 -27
-26 -26 -26 -25 -26 -25 -25 -25 -25 -25 -25 -25 -25 -25 -24 -24 -24 -24 -24 -24 -25 -25 -25 -25 -25 -25 -25 -25 -25 -25 -25 -26 -26 -26 -27 -27 -27 -27 -27 -27 -27 -27 -27 -26
-26 -25 -26 -26 -26 -26 -26 -26 -26 -25 -25 -25 -25 -25 -24 -24 -24 -24 -24 -25 -25 -25 -25 -25 -25 -25 -25 -25 -25 -25 -25 -26 -26 -26 -26 -27 -27 -26 -26 -27 -27 -27 -26 -26
-26 -26 -26 -26 -26 -26 -26 -26 -26 -25 -25 -25 -25 -25 -25 -25 -25 -25 -25 -25 -25 -25 -25 -25 -25 -25 -25 -25 -25 -25 -25 -26 -26 -26 -26 -26 -26 -26 -26 -26 -26 -26 -26 -26
-27 -27 -26 -26 -26 -26 -26 -26 -26 -25 -25 -25 -25 -25 -25 -25 -25 -26 -25 -25 -25 -25 -25 -25 -25 -25 -25 -25 -25 -26 -26 -26 -26 -26 -26 -27 -27 -26 -26 -26 -26 -26 -26 -26
-27 -27 -26 -26 -26 -26 -26 -26 -26 -25 -25 -25 -25 -25 -25 -26 -26 -26 -26 -25 -25 -25 -25 -25 -25 -25 -26 -26 -26 -26 -26 -26 -26 -26 -26 -26 -26 -26 -27 -27 -26 -27 -27 -26
-27 -27 -27 -26 -26 -26 -26 -26 -26 -26 -26 -26 -26 -26 -26 -26 -26 -26 -26 -26 -26 -26 -26 -25 -26 -26 -26 -26 -26 -26 -26 -26 -26 -26 -26 -27 -27 -27 -27 -27 -26 -26 -26 -26
-27 -27 -27 -26 -26 -26 -26 -26 -26 -27 -27 -27 -27 -27 -26 -26 -26 -26 -26 -26 -26 -26 -26 -26 -26 -26 -26 -26 -26 -26 -27 -27 -27 -27 -27 -27 -27 -27 -27 -27 -27 -27 -27 -27
-27 -26 -26 -26 -26 -26 -26 -27 -27 -27 -27 -27 -27 -27 -27 -27 -27 -27 -27 -27 -27 -27 -27 -27 -27 -27 -27 -27 -27 -27 -27 -27 -27 -27 -27 -27 -27 -27 -27 -27 -28 -27 -27 -27
-26 -26 -26 -26 -26 -26 -27 -27 -27 -27 -27 -27 -27 -27 -27 -27 -27 -27 -27 -27 -27 -27 -27 -27 -27 -27 -27 -27 -27 -27 -27 -27 -27 -27 -28 -28 -28 -28 -28 -28 -28 -28 -28 -28
-26 -26 -26 -27 -27 -27 -27 -27 -28 -28 -28 -28 -28 -28 -28 -28 -27 -27 -28 -28 -28 -28 -27 -27 -28 -28 -28 -28 -28 -28 -28 -28 -28 -28 -28 -28 -28 -28 -28 -28 -28 -28 -28 -28
-26 -26 -26 -26 -27 -27 -27 -27 -28 -28 -28 -29 -29 -29 -28 -28 -28 -28 -28 -28 -28 -28 -28 -28 -28 -28 -28 -28 -28 -28 -28 -28 -28 -28 -29 -29 -29 -29 -29 -29 -29 -29 -29 -29
-25 -26 -26 -26 -26 -27 -27 -28 -28 -29 -29 -29 -29 -29 -29 -29 -29 -29 -29 -29 -28 -28 -29 -29 -29 -29 -29 -29 -29 -29 -29 -29 -29 -29 -29 -29 -29 -29 -29 -29 -29 -29 -29 -29
-25 -25 -25 -26 -26 -27 -28 -28 -28 -29 -29 -29 -29 -29 -29 -29 -29 -29 -29 -29 -29 -29 -29 -29 -29 -29 -29 -29 -29 -29 -29 -29 -29 -29 -30 -30 -30 -30 -30 -30 -30 -30 -30 -30
-25 -25 -26 -26 -27 -28 -28 -28 -28 -28 -29 -29 -29 -29 -29 -29 -29 -29 -29 -29 -29 -29 -29 -29 -29 -29 -30 -30 -30 -30 -30 -30 -30 -30 -30 -30 -30 -30 -30 -30 -30 -31 -31 -31
-26 -26 -26 -27 -27 -28 -28 -28 -28 -28 -28 -29 -29 -29 -29 -29 -29 -29 -29 -29 -29 -29 -29 -29 -29 -29 -30 -30 -30 -30 -30 -30 -30 -30 -30 -31 -31 -31 -31 -31 -31 -31 -31 -32
-26 -26 -27 -27 -27 -28 -28 -28 -28 -29 -29 -29 -29 -29 -29 -29 -29 -29 -29 -29 -29 -29 -29 -29 -30 -30 -30 -30 -30 -30 -30 -31 -31 -31 -31 -31 -31 -31 -32 -32 -32 -32 -32 -32
-26 -27 -27 -27 -28 -28 -28 -28 -28 -29 -29 -29 -29 -29 -29 -29 -29 -29 -29 -29 -29 -30 -30 -30 -30 -30 -30 -31 -31 -31 -31 -31 -31 -32 -32 -32 -32 -32 -32 -32 -32 -32 -32 -32

GFSNGP_500_temp_144.txt.gz
Temp
-20 -20 -20 -20 -20 -20 -20 -20 -21 -21 -21 -21 -21 -22 -22 -22 -22 -22 -22 -22 -22 -22 -22 -22 -22 -23 -23 -22 -23 -23 -23 -23 -23 -22 -23 -23 -23 -23 -23 -23 -24 -24 -24 -23
-21 -22 -22 -21 -20 -20 -20 -21 -22 -23 -22 -22 -23 -23 -22 -22 -22 -22 -22 -23 -22 -23 -22 -23 -23 -23 -23 -23 -23 -23 -23 -23 -23 -23 -23 -23 -24 -24 -24 -24 -24 -25 -24 -24
-22 -23 -22 -22 -21 -22 -22 -22 -23 -23 -22 -23 -23 -23 -23 -23 -23 -23 -23 -23 -23 -23 -23 -23 -23 -23 -23 -24 -23 -23 -24 -24 -24 -24 -24 -24 -24 -24 -25 -25 -25 -25 -26 -25
-24 -24 -24 -23 -22 -23 -23 -23 -23 -23 -23 -23 -23 -23 -23 -23 -23 -23 -23 -23 -23 -23 -23 -23 -24 -24 -24 -24 -24 -24 -24 -24 -24 -24 -24 -25 -25 -25 -25 -25 -26 -26 -26 -26
-25 -25 -25 -24 -23 -23 -24 -23 -24 -23 -23 -24 -24 -24 -24 -24 -24 -24 -24 -23 -24 -24 -24 -24 -24 -24 -24 -24 -24 -25 -25 -25 -25 -25 -25 -25 -25 -26 -26 -26 -26 -26 -27 -28
-26 -25 -25 -23 -24 -25 -25 -24 -24 -25 -24 -24 -24 -24 -25 -25 -24 -24 -24 -24 -24 -24 -24 -24 -24 -24 -24 -24 -25 -25 -25 -25 -25 -25 -25 -25 -25 -26 -26 -26 -27 -27 -27 -28
-26 -26 -25 -24 -24 -25 -26 -24 -25 -25 -25 -25 -25 -25 -25 -25 -25 -24 -24 -24 -24 -24 -24 -25 -24 -24 -24 -24 -25 -25 -25 -25 -25 -25 -25 -25 -26 -26 -26 -27 -27 -27 -28 -28
-26 -26 -25 -25 -25 -25 -25 -25 -25 -25 -25 -25 -25 -25 -25 -25 -25 -25 -25 -25 -24 -25 -25 -24 -24 -24 -24 -25 -25 -25 -25 -25 -25 -25 -25 -26 -26 -26 -27 -27 -27 -27 -28 -28
-27 -26 -26 -26 -25 -26 -26 -26 -26 -25 -25 -25 -25 -25 -25 -25 -25 -25 -25 -25 -24 -25 -25 -24 -24 -25 -25 -25 -25 -25 -25 -25 -25 -25 -26 -26 -26 -27 -27 -27 -28 -28 -28 -28
-27 -27 -27 -27 -26 -26 -26 -26 -26 -26 -26 -25 -25 -25 -25 -25 -25 -25 -25 -25 -25 -25 -25 -25 -25 -26 -25 -25 -25 -25 -25 -25 -25 -26 -26 -26 -26 -27 -27 -27 -28 -27 -27 -27
-27 -27 -27 -26 -26 -26 -26 -26 -26 -26 -26 -25 -25 -25 -25 -25 -25 -25 -25 -25 -24 -25 -25 -25 -26 -25 -25 -25 -25 -25 -25 -25 -25 -26 -26 -26 -26 -27 -27 -27 -27 -27 -27 -27
-27 -27 -27 -26 -26 -26 -26 -26 -26 -26 -26 -26 -25 -25 -25 -25 -25 -25 -25 -25 -25 -25 -26 -26 -25 -25 -25 -25 -25 -25 -25 -26 -26 -26 -26 -27 -26 -26 -26 -27 -27 -27 -27 -27
-27 -27 -27 -26 -26 -26 -26 -26 -26 -26 -26 -26 -26 -25 -25 -25 -25 -25 -25 -25 -25 -26 -26 -26 -26 -25 -26 -25 -25 -25 -26 -26 -26 -26 -26 -26 -26 -26 -26 -27 -27 -27 -27 -26
-27 -27 -27 -27 -26 -27 -26 -26 -26 -26 -26 -26 -26 -25 -25 -25 -25 -25 -25 -26 -26 -26 -26 -26 -26 -26 -26 -26 -26 -26 -26 -26 -26 -26 -26 -26 -26 -27 -27 -27 -27 -27 -26 -26
-27 -27 -27 -27 -26 -27 -26 -26 -26 -26 -26 -26 -26 -25 -25 -25 -26 -26 -26 -26 -26 -26 -26 -26 -26 -26 -26 -26 -26 -26 -26 -26 -26 -26 -26 -26 -26 -27 -27 -27 -27 -27 -27 -27
-27 -26 -27 -27 -26 -26 -26 -26 -26 -26 -26 -26 -26 -26 -26 -27 -27 -27 -27 -26 -26 -26 -26 -26 -26 -26 -26 -27 -27 -27 -27 -27 -27 -27 -27 -27 -27 -28 -27 -27 -27 -27 -27 -27
-27 -27 -27 -26 -26 -26 -26 -26 -26 -26 -26 -27 -27 -27 -27 -27 -27 -27 -27 -27 -27 -27 -27 -27 -27 -27 -27 -27 -27 -27 -27 -27 -27 -27 -27 -27 -27 -27 -27 -28 -28 -27 -27 -28
-27 -27 -26 -26 -26 -26 -26 -26 -26 -26 -27 -27 -27 -27 -27 -27 -27 -27 -27 -27 -27 -27 -27 -27 -27 -27 -27 -27 -27 -27 -27 -27 -27 -27 -27 -27 -27 -28 -28 -28 -28 -28 -28 -28
-27 -27 -27 -27 -26 -26 -26 -26 -27 -27 -27 -27 -27 -27 -27 -27 -27 -27 -27 -27 -27 -27 -27 -27 -27 -27 -27 -27 -28 -28 -28 -28 -28 -28 -28 -28 -28 -28 -28 -28 -28 -29 -29 -29
-27 -26 -26 -26 -26 -27 -27 -27 -27 -27 -28 -28 -28 -28 -28 -28 -28 -28 -28 -28 -28 -28 -28 -28 -28 -28 -28 -28 -28 -28 -28 -28 -28 -28 -28 -28 -29 -29 -29 -29 -29 -29 -29 -29
-26 -26 -26 -26 -26 -26 -27 -27 -27 -27 -28 -28 -28 -29 -29 -29 -29 -29 -29 -29 -29 -29 -28 -28 -28 -28 -29 -29 -29 -29 -29 -29 -29 -29 -29 -29 -29 -29 -29 -29 -29 -30 -30 -30
-26 -26 -26 -26 -26 -26 -26 -27 -27 -27 -28 -28 -29 -29 -29 -29 -29 -29 -29 -29 -29 -29 -29 -29 -29 -29 -29 -29 -29 -29 -29 -29 -29 -29 -29 -29 -30 -30 -30 -30 -30 -30 -30 -30
-25 -25 -25 -25 -25 -26 -26 -27 -27 -28 -28 -28 -28 -28 -28 -29 -29 -29 -29 -29 -29 -29 -29 -29 -29 -29 -29 -29 -29 -29 -29 -30 -30 -30 -30 -30 -30 -30 -30 -30 -31 -31 -31 -31
-25 -25 -25 -25 -26 -26 -27 -27 -28 -28 -28 -28 -28 -29 -29 -29 -29 -29 -29 -29 -29 -29 -29 -29 -29 -29 -29 -30 -30 -30 -30 -30 -30 -30 -30 -31 -31 -31 -31 -31 -31 -31 -31 -32
-26 -26 -26 -26 -26 -27 -27 -27 -28 -28 -28 -28 -28 -29 -29 -29 -29 -29 -29 -29 -29 -29 -29 -29 -29 -30 -30 -30 -30 -30 -30 -30 -30 -31 -31 -31 -31 -31 -31 -31 -32 -32 -32 -32
-26 -26 -26 -26 -27 -27 -27 -27 -28 -28 -28 -28 -28 -28 -29 -29 -29 -29 -29 -29 -29 -29 -30 -30 -30 -30 -30 -30 -30 -31 -31 -31 -31 -31 -31 -31 -31 -32 -32 -32 -32 -32 -32 -32
-26 -26 -26 -27 -27 -27 -27 -27 -28 -28 -28 -28 -28 -28 -28 -29 -29 -29 -29 -29 -29 -29 -30 -30 -30 -30 -30 -31 -31 -31 -31 -31 -31 -32 -32 -32 -32 -32 -32 -32 -32 -32 -32 -32